| time (UTC) | temp F | wind direction | speed MPH | gust MPH | rain 1hr in | rain 24hr in | rain mn in | humidity % | barometer mb |
| 20260901002542 | 53 | 163 | 0.0 | 2.0 | 0.00 | 0.03 | 0.00 | 90 | 1004.4 |
| 20260901002043 | 53 | 0 | 0.0 | 2.0 | 0.00 | 0.03 | 0.00 | 90 | 1004.4 |
| 20260901001612 | 53 | 0 | 0.0 | 2.0 | 0.00 | 0.03 | 0.00 | 90 | 1004.5 |
| 20260901001043 | 53 | 0 | 0.0 | 2.0 | 0.00 | 0.03 | 0.00 | 90 | 1004.4 |
| 20260901000543 | 53 | 163 | 0.0 | 2.0 | 0.00 | 0.03 | 0.00 | 91 | 1004.5 |
| 20260901000059 | 52 | 0 | 0.0 | 2.0 | 0.00 | 0.03 | 0.00 | 91 | 1004.5 |
| 20260831235543 | 52 | 0 | 0.0 | 2.0 | 0.00 | 0.03 | 0.00 | 91 | 1004.5 |
| 20260831235043 | 52 | 95 | 0.0 | 3.0 | 0.00 | 0.03 | 0.00 | 91 | 1004.6 |
| 20260831234624 | 52 | 0 | 0.0 | 3.0 | 0.00 | 0.03 | 0.00 | 91 | 1004.6 |
| 20260831234043 | 52 | 0 | 0.0 | 2.0 | 0.00 | 0.03 | 0.00 | 90 | 1004.6 |
| 20260831233544 | 52 | 0 | 0.0 | 2.0 | 0.00 | 0.03 | 0.00 | 90 | 1004.6 |
| 20260831233100 | 52 | 0 | 0.0 | 3.0 | 0.00 | 0.03 | 0.00 | 90 | 1004.6 |
| 20260831232542 | 52 | 0 | 0.0 | 3.0 | 0.00 | 0.03 | 0.00 | 90 | 1004.6 |
| 20260831232042 | 51 | 279 | 0.0 | 0.0 | 0.00 | 0.03 | 0.00 | 90 | 1004.7 |
| 20260831231607 | 51 | 0 | 0.0 | 0.0 | 0.00 | 0.03 | 0.00 | 89 | 1004.7 |
| 20260831231045 | 51 | 0 | 0.0 | 0.0 | 0.00 | 0.03 | 0.00 | 89 | 1004.8 |
| 20260831230542 | 51 | 0 | 0.0 | 0.0 | 0.00 | 0.03 | 0.00 | 89 | 1004.8 |
| 20260831230057 | 51 | 0 | 0.0 | 0.0 | 0.00 | 0.03 | 0.00 | 89 | 1004.9 |
| 20260831225543 | 51 | 0 | 0.0 | 0.0 | 0.00 | 0.03 | 0.00 | 89 | 1004.8 |
| 20260831225042 | 51 | 0 | 0.0 | 0.0 | 0.00 | 0.03 | 0.00 | 89 | 1004.9 |
| 20260831224602 | 51 | 0 | 0.0 | 0.0 | 0.00 | 0.03 | 0.00 | 89 | 1004.9 |
| 20260831224045 | 51 | 0 | 0.0 | 0.0 | 0.00 | 0.03 | 0.00 | 89 | 1005.0 |
| 20260831223543 | 51 | 0 | 0.0 | 0.0 | 0.00 | 0.03 | 0.00 | 89 | 1005.0 |
| 20260831223058 | 51 | 0 | 0.0 | 0.0 | 0.00 | 0.03 | 0.00 | 88 | 1005.0 |
| 20260831222541 | 51 | 0 | 0.0 | 0.0 | 0.00 | 0.03 | 0.00 | 88 | 1005.0 |
| 20260831222043 | 51 | 0 | 0.0 | 3.0 | 0.00 | 0.03 | 0.00 | 88 | 1005.0 |
| 20260831221554 | 51 | 0 | 0.0 | 3.0 | 0.00 | 0.03 | 0.00 | 88 | 1005.0 |
| 20260831221042 | 51 | 0 | 1.0 | 3.0 | 0.00 | 0.03 | 0.00 | 88 | 1005.1 |
| 20260831220543 | 51 | 0 | 0.0 | 0.0 | 0.00 | 0.03 | 0.00 | 87 | 1005.0 |
| 20260831220118 | 51 | 0 | 0.0 | 0.0 | 0.00 | 0.03 | 0.00 | 87 | 1005.2 |
| 20260831215544 | 51 | 0 | 0.0 | 0.0 | 0.00 | 0.04 | 0.03 | 86 | 1005.1 |
| 20260831215043 | 51 | 0 | 0.0 | 0.0 | 0.00 | 0.04 | 0.03 | 86 | 1005.2 |
| 20260831214603 | 51 | 0 | 0.0 | 0.0 | 0.00 | 0.04 | 0.03 | 86 | 1005.2 |
| 20260831214043 | 51 | 0 | 0.0 | 0.0 | 0.00 | 0.04 | 0.03 | 86 | 1005.2 |
| 20260831213542 | 51 | 0 | 0.0 | 0.0 | 0.00 | 0.04 | 0.03 | 86 | 1005.1 |
| 20260831213105 | 52 | 0 | 0.0 | 0.0 | 0.00 | 0.04 | 0.03 | 86 | 1005.2 |
| 20260831212545 | 52 | 0 | 0.0 | 0.0 | 0.00 | 0.04 | 0.03 | 86 | 1005.3 |
| 20260831212043 | 52 | 0 | 0.0 | 0.0 | 0.00 | 0.04 | 0.03 | 86 | 1005.3 |
| 20260831211612 | 52 | 0 | 0.0 | 0.0 | 0.00 | 0.04 | 0.03 | 86 | 1005.3 |
| 20260831211042 | 52 | 0 | 0.0 | 0.0 | 0.00 | 0.04 | 0.03 | 86 | 1005.3 |
| 20260831210544 | 52 | 0 | 0.0 | 0.0 | 0.00 | 0.04 | 0.03 | 86 | 1005.4 |
| 20260831210104 | 52 | 0 | 0.0 | 0.0 | 0.00 | 0.04 | 0.03 | 86 | 1005.4 |
| 20260831205543 | 52 | 0 | 0.0 | 0.0 | 0.00 | 0.08 | 0.03 | 86 | 1005.4 |
| 20260831205042 | 53 | 0 | 0.0 | 0.0 | 0.00 | 0.08 | 0.03 | 86 | 1005.4 |
| 20260831204559 | 53 | 0 | 0.0 | 0.0 | 0.00 | 0.08 | 0.03 | 86 | 1005.4 |
| 20260831204043 | 53 | 0 | 0.0 | 2.0 | 0.00 | 0.08 | 0.03 | 86 | 1005.4 |
| 20260831203542 | 53 | 0 | 0.0 | 2.0 | 0.00 | 0.08 | 0.03 | 86 | 1005.4 |
| 20260831203102 | 53 | 0 | 0.0 | 2.0 | 0.00 | 0.08 | 0.03 | 86 | 1005.3 |
| 20260831202542 | 53 | 0 | 0.0 | 0.0 | 0.00 | 0.08 | 0.03 | 86 | 1005.4 |
| 20260831202043 | 53 | 0 | 0.0 | 3.0 | 0.00 | 0.08 | 0.03 | 86 | 1005.5 |
| 20260831201608 | 53 | 0 | 0.0 | 3.0 | 0.00 | 0.08 | 0.03 | 86 | 1005.4 |
| 20260831201046 | 54 | 327 | 0.0 | 3.0 | 0.00 | 0.08 | 0.03 | 86 | 1005.5 |
| 20260831200543 | 54 | 0 | 0.0 | 0.0 | 0.00 | 0.08 | 0.03 | 86 | 1005.5 |
| 20260831200056 | 54 | 0 | 0.0 | 0.0 | 0.00 | 0.08 | 0.03 | 86 | 1005.4 |
| 20260831195544 | 54 | 0 | 0.0 | 0.0 | 0.00 | 0.11 | 0.03 | 86 | 1005.5 |
| 20260831195045 | 54 | 0 | 0.0 | 0.0 | 0.00 | 0.11 | 0.03 | 86 | 1005.4 |
| 20260831194629 | 54 | 0 | 0.0 | 2.0 | 0.00 | 0.11 | 0.03 | 86 | 1005.5 |
| 20260831194044 | 54 | 0 | 0.0 | 2.0 | 0.00 | 0.11 | 0.03 | 86 | 1005.5 |
| 20260831193544 | 54 | 0 | 1.0 | 2.0 | 0.00 | 0.11 | 0.03 | 86 | 1005.5 |
| 20260831193052 | 55 | 318 | 0.0 | 3.0 | 0.00 | 0.11 | 0.03 | 87 | 1005.5 |
| 20260831192544 | 55 | 0 | 0.0 | 3.0 | 0.00 | 0.11 | 0.03 | 87 | 1005.6 |
| 20260831192042 | 55 | 316 | 0.0 | 3.0 | 0.00 | 0.11 | 0.03 | 87 | 1005.5 |
| 20260831191602 | 55 | 0 | 0.0 | 2.0 | 0.00 | 0.11 | 0.03 | 87 | 1005.6 |
| 20260831191045 | 55 | 0 | 0.0 | 3.0 | 0.00 | 0.11 | 0.03 | 87 | 1005.6 |
| 20260831190543 | 55 | 0 | 0.0 | 3.0 | 0.00 | 0.11 | 0.03 | 87 | 1005.6 |
| 20260831190113 | 55 | 0 | 0.0 | 3.0 | 0.00 | 0.11 | 0.03 | 87 | 1005.6 |
| 20260831185543 | 55 | 269 | 0.0 | 4.0 | 0.00 | 0.11 | 0.03 | 87 | 1005.6 |
| 20260831185042 | 55 | 310 | 1.0 | 7.0 | 0.00 | 0.11 | 0.03 | 87 | 1005.6 |
| 20260831184613 | 55 | 318 | 1.0 | 7.0 | 0.00 | 0.11 | 0.03 | 87 | 1005.6 |
| 20260831184042 | 55 | 245 | 1.0 | 4.0 | 0.00 | 0.11 | 0.03 | 86 | 1005.6 |
| 20260831183542 | 55 | 225 | 1.0 | 4.0 | 0.00 | 0.11 | 0.03 | 86 | 1005.6 |
| 20260831183108 | 56 | 0 | 1.0 | 4.0 | 0.00 | 0.11 | 0.03 | 86 | 1005.7 |
| 20260831182542 | 56 | 0 | 0.0 | 6.0 | 0.00 | 0.11 | 0.03 | 86 | 1005.8 |
| 20260831182042 | 56 | 360 | 1.0 | 6.0 | 0.00 | 0.11 | 0.03 | 86 | 1005.7 |
| 20260831181559 | 56 | 0 | 2.0 | 6.0 | 0.00 | 0.11 | 0.03 | 86 | 1005.7 |
| 20260831181045 | 56 | 347 | 2.0 | 5.0 | 0.00 | 0.11 | 0.03 | 86 | 1005.7 |
| 20260831180542 | 56 | 0 | 2.0 | 8.0 | 0.00 | 0.11 | 0.03 | 86 | 1005.8 |
| 20260831180054 | 56 | 11 | 2.0 | 8.0 | 0.00 | 0.11 | 0.03 | 86 | 1005.8 |
| 20260831175546 | 56 | 342 | 3.0 | 8.0 | 0.00 | 0.11 | 0.03 | 86 | 1005.7 |
| 20260831175044 | 56 | 334 | 2.0 | 7.0 | 0.00 | 0.11 | 0.03 | 85 | 1005.6 |
| 20260831174612 | 56 | 309 | 2.0 | 7.0 | 0.00 | 0.11 | 0.03 | 85 | 1005.6 |
| 20260831174044 | 56 | 318 | 1.0 | 7.0 | 0.00 | 0.11 | 0.03 | 85 | 1005.6 |
| 20260831173543 | 56 | 352 | 2.0 | 7.0 | 0.00 | 0.11 | 0.03 | 85 | 1005.6 |
| 20260831173107 | 56 | 340 | 2.0 | 8.0 | 0.00 | 0.11 | 0.03 | 85 | 1005.6 |
| 20260831172543 | 56 | 296 | 2.0 | 8.0 | 0.00 | 0.11 | 0.03 | 85 | 1005.6 |
| 20260831172042 | 56 | 299 | 2.0 | 8.0 | 0.00 | 0.11 | 0.03 | 85 | 1005.5 |
| 20260831171555 | 56 | 280 | 2.0 | 8.0 | 0.00 | 0.11 | 0.03 | 85 | 1005.5 |
| 20260831171042 | 56 | 286 | 1.0 | 8.0 | 0.00 | 0.11 | 0.03 | 85 | 1005.6 |
| 20260831170544 | 56 | 323 | 1.0 | 6.0 | 0.00 | 0.11 | 0.03 | 85 | 1005.5 |
| 20260831170106 | 56 | 305 | 2.0 | 6.0 | 0.00 | 0.11 | 0.03 | 84 | 1005.6 |
| 20260831165542 | 56 | 203 | 1.0 | 8.0 | 0.00 | 0.11 | 0.03 | 84 | 1005.6 |
| 20260831165042 | 56 | 11 | 3.0 | 8.0 | 0.00 | 0.11 | 0.03 | 84 | 1005.7 |
| 20260831164606 | 57 | 319 | 2.0 | 8.0 | 0.00 | 0.11 | 0.03 | 84 | 1005.6 |
| 20260831164042 | 57 | 300 | 2.0 | 10.0 | 0.00 | 0.11 | 0.03 | 84 | 1005.7 |
| 20260831163542 | 57 | 352 | 2.0 | 10.0 | 0.00 | 0.11 | 0.03 | 84 | 1005.6 |
| 20260831163055 | 57 | 329 | 2.0 | 9.0 | 0.00 | 0.11 | 0.03 | 84 | 1005.6 |
| 20260831162544 | 57 | 28 | 2.0 | 11.0 | 0.00 | 0.11 | 0.03 | 83 | 1005.6 |
| 20260831162043 | 57 | 315 | 2.0 | 11.0 | 0.00 | 0.11 | 0.03 | 83 | 1005.7 |
| 20260831161607 | 57 | 325 | 3.0 | 10.0 | 0.00 | 0.11 | 0.03 | 83 | 1005.6 |
| 20260831161042 | 57 | 229 | 3.0 | 9.0 | 0.00 | 0.11 | 0.03 | 83 | 1005.6 |
| 20260831160542 | 57 | 204 | 2.0 | 9.0 | 0.00 | 0.11 | 0.03 | 83 | 1005.6 |
| 20260831155542 | 57 | 208 | 2.0 | 9.0 | 0.00 | 0.11 | 0.03 | 83 | 1005.6 |
| 20260831155045 | 58 | 286 | 2.0 | 7.0 | 0.00 | 0.11 | 0.03 | 83 | 1005.6 |
| 20260831154631 | 58 | 302 | 2.0 | 9.0 | 0.00 | 0.11 | 0.03 | 83 | 1005.6 |
| 20260831154045 | 58 | 297 | 1.0 | 9.0 | 0.00 | 0.11 | 0.03 | 83 | 1005.6 |
| 20260831153542 | 58 | 352 | 3.0 | 9.0 | 0.00 | 0.11 | 0.03 | 83 | 1005.7 |
| 20260831153104 | 58 | 301 | 3.0 | 10.0 | 0.00 | 0.11 | 0.03 | 83 | 1005.7 |
| 20260831152542 | 58 | 336 | 3.0 | 10.0 | 0.00 | 0.11 | 0.03 | 83 | 1005.7 |
| 20260831152042 | 58 | 332 | 2.0 | 12.0 | 0.00 | 0.11 | 0.03 | 83 | 1005.7 |
| 20260831151607 | 58 | 280 | 2.0 | 12.0 | 0.00 | 0.11 | 0.03 | 83 | 1005.7 |
| 20260831151042 | 58 | 296 | 2.0 | 12.0 | 0.00 | 0.11 | 0.03 | 83 | 1005.7 |
| 20260831150544 | 58 | 325 | 2.0 | 9.0 | 0.00 | 0.11 | 0.03 | 83 | 1005.7 |
| 20260831150058 | 58 | 225 | 2.0 | 10.0 | 0.00 | 0.11 | 0.03 | 83 | 1005.7 |
| 20260831145543 | 58 | 329 | 4.0 | 10.0 | 0.00 | 0.11 | 0.03 | 82 | 1005.7 |
| 20260831145046 | 58 | 270 | 3.0 | 9.0 | 0.00 | 0.11 | 0.03 | 82 | 1005.8 |
| 20260831144609 | 58 | 292 | 3.0 | 11.0 | 0.00 | 0.11 | 0.03 | 82 | 1005.9 |
| 20260831144042 | 58 | 300 | 3.0 | 11.0 | 0.00 | 0.11 | 0.03 | 82 | 1005.8 |
| 20260831143543 | 58 | 352 | 4.0 | 9.0 | 0.00 | 0.11 | 0.03 | 82 | 1005.8 |
| 20260831143104 | 58 | 0 | 4.0 | 9.0 | 0.00 | 0.11 | 0.03 | 82 | 1005.8 |
| 20260831142544 | 58 | 288 | 4.0 | 10.0 | 0.00 | 0.11 | 0.03 | 82 | 1005.8 |
| 20260831142044 | 58 | 273 | 3.0 | 10.0 | 0.00 | 0.11 | 0.03 | 82 | 1005.8 |
| 20260831141605 | 58 | 279 | 3.0 | 10.0 | 0.00 | 0.11 | 0.03 | 82 | 1005.8 |
| 20260831141042 | 58 | 301 | 2.0 | 8.0 | 0.00 | 0.11 | 0.03 | 82 | 1005.8 |
| 20260831140546 | 58 | 352 | 3.0 | 8.0 | 0.00 | 0.11 | 0.03 | 82 | 1005.9 |
| 20260831140057 | 58 | 297 | 2.0 | 8.0 | 0.00 | 0.11 | 0.03 | 82 | 1005.8 |
| 20260831135618 | 58 | 15 | 1.0 | 8.0 | 0.00 | 0.11 | 0.03 | 82 | 1005.8 |
| 20260831135042 | 58 | 40 | 3.0 | 9.0 | 0.00 | 0.11 | 0.03 | 82 | 1005.9 |
| 20260831134600 | 58 | 325 | 2.0 | 9.0 | 0.00 | 0.11 | 0.03 | 83 | 1005.8 |
| 20260831134042 | 58 | 0 | 2.0 | 9.0 | 0.00 | 0.11 | 0.03 | 83 | 1005.9 |
| 20260831133545 | 58 | 320 | 2.0 | 10.0 | 0.00 | 0.11 | 0.03 | 82 | 1005.9 |
| 20260831133107 | 58 | 221 | 4.0 | 10.0 | 0.00 | 0.11 | 0.03 | 83 | 1005.9 |
| 20260831132542 | 58 | 304 | 3.0 | 10.0 | 0.00 | 0.11 | 0.03 | 83 | 1005.9 |
| 20260831132042 | 58 | 295 | 5.0 | 10.0 | 0.00 | 0.11 | 0.03 | 83 | 1005.9 |
| 20260831131603 | 58 | 329 | 2.0 | 8.0 | 0.00 | 0.11 | 0.03 | 84 | 1005.8 |
| 20260831131042 | 58 | 352 | 2.0 | 8.0 | 0.00 | 0.11 | 0.03 | 85 | 1005.8 |
| 20260831130542 | 58 | 309 | 1.0 | 8.0 | 0.00 | 0.11 | 0.03 | 85 | 1005.9 |
| 20260831130110 | 58 | 336 | 1.0 | 9.0 | 0.00 | 0.11 | 0.03 | 85 | 1005.9 |
| 20260831125546 | 58 | 308 | 2.0 | 9.0 | 0.00 | 0.16 | 0.03 | 85 | 1005.8 |
| 20260831125043 | 58 | 273 | 3.0 | 9.0 | 0.00 | 0.16 | 0.03 | 85 | 1005.8 |
| 20260831124604 | 58 | 315 | 2.0 | 9.0 | 0.00 | 0.16 | 0.03 | 85 | 1005.8 |
| 20260831124041 | 58 | 340 | 3.0 | 9.0 | 0.00 | 0.16 | 0.03 | 85 | 1005.8 |
| 20260831123544 | 58 | 305 | 3.0 | 8.0 | 0.00 | 0.16 | 0.03 | 85 | 1005.8 |
| 20260831123054 | 58 | 278 | 2.0 | 8.0 | 0.00 | 0.16 | 0.03 | 85 | 1005.8 |
| 20260831122542 | 58 | 326 | 3.0 | 7.0 | 0.00 | 0.16 | 0.03 | 85 | 1005.8 |
| 20260831122042 | 58 | 311 | 2.0 | 8.0 | 0.00 | 0.16 | 0.03 | 85 | 1005.8 |
| 20260831121601 | 58 | 296 | 2.0 | 8.0 | 0.00 | 0.16 | 0.03 | 85 | 1005.8 |
| 20260831121042 | 58 | 294 | 2.0 | 8.0 | 0.00 | 0.16 | 0.03 | 85 | 1005.9 |
| 20260831120542 | 58 | 290 | 3.0 | 8.0 | 0.00 | 0.16 | 0.03 | 85 | 1005.9 |
| 20260831120057 | 58 | 337 | 3.0 | 8.0 | 0.00 | 0.16 | 0.03 | 84 | 1005.8 |
| 20260831115542 | 58 | 242 | 3.0 | 8.0 | 0.00 | 0.19 | 0.03 | 85 | 1005.9 |
| 20260831115041 | 58 | 257 | 1.0 | 8.0 | 0.00 | 0.19 | 0.03 | 85 | 1005.9 |
| 20260831114557 | 58 | 5 | 2.0 | 8.0 | 0.00 | 0.19 | 0.03 | 84 | 1005.9 |
| 20260831114044 | 58 | 308 | 3.0 | 11.0 | 0.00 | 0.19 | 0.03 | 84 | 1005.9 |
| 20260831113541 | 59 | 269 | 3.0 | 11.0 | 0.00 | 0.19 | 0.03 | 84 | 1005.9 |
| 20260831113107 | 58 | 328 | 3.0 | 11.0 | 0.00 | 0.19 | 0.03 | 85 | 1005.9 |
| 20260831112541 | 58 | 306 | 2.0 | 7.0 | 0.00 | 0.19 | 0.03 | 86 | 1005.8 |
| 20260831112042 | 58 | 265 | 2.0 | 7.0 | 0.00 | 0.19 | 0.03 | 87 | 1005.8 |
| 20260831111612 | 58 | 9 | 2.0 | 6.0 | 0.00 | 0.19 | 0.03 | 87 | 1005.8 |
| 20260831111041 | 58 | 299 | 1.0 | 6.0 | 0.00 | 0.19 | 0.03 | 87 | 1005.7 |
| 20260831110544 | 58 | 350 | 1.0 | 9.0 | 0.00 | 0.19 | 0.03 | 88 | 1005.7 |
| 20260831110134 | 58 | 278 | 2.0 | 9.0 | 0.00 | 0.19 | 0.03 | 88 | 1005.7 |
| 20260831105542 | 57 | 337 | 2.0 | 5.0 | 0.00 | 0.19 | 0.03 | 88 | 1005.7 |
| 20260831105044 | 57 | 310 | 1.0 | 10.0 | 0.00 | 0.19 | 0.03 | 88 | 1005.6 |
| 20260831104600 | 57 | 284 | 3.0 | 10.0 | 0.00 | 0.19 | 0.03 | 88 | 1005.6 |
| 20260831104046 | 57 | 5 | 1.0 | 8.0 | 0.00 | 0.19 | 0.03 | 88 | 1005.6 |
| 20260831103546 | 57 | 282 | 2.0 | 8.0 | 0.00 | 0.19 | 0.03 | 88 | 1005.6 |
| 20260831103101 | 57 | 267 | 3.0 | 8.0 | 0.00 | 0.19 | 0.03 | 88 | 1005.5 |
| 20260831102544 | 57 | 309 | 3.0 | 8.0 | 0.00 | 0.19 | 0.03 | 88 | 1005.6 |
| 20260831102049 | 57 | 5 | 2.0 | 6.0 | 0.00 | 0.19 | 0.03 | 89 | 1005.6 |
| 20260831101555 | 57 | 37 | 1.0 | 6.0 | 0.00 | 0.19 | 0.03 | 89 | 1005.7 |
| 20260831101044 | 57 | 312 | 1.0 | 4.0 | 0.00 | 0.19 | 0.03 | 89 | 1005.7 |
| 20260831100544 | 57 | 349 | 0.0 | 6.0 | 0.00 | 0.19 | 0.03 | 89 | 1005.6 |
| 20260831100104 | 56 | 329 | 2.0 | 6.0 | 0.00 | 0.19 | 0.03 | 89 | 1005.7 |
| 20260831095543 | 56 | 277 | 1.0 | 6.0 | 0.00 | 0.19 | 0.03 | 89 | 1005.6 |
| 20260831095043 | 56 | 321 | 1.0 | 6.0 | 0.00 | 0.19 | 0.03 | 89 | 1005.7 |
| 20260831094602 | 56 | 0 | 2.0 | 6.0 | 0.00 | 0.19 | 0.03 | 89 | 1005.6 |
| 20260831094047 | 56 | 352 | 1.0 | 5.0 | 0.00 | 0.19 | 0.03 | 89 | 1005.5 |
| 20260831093544 | 56 | 282 | 0.0 | 4.0 | 0.00 | 0.19 | 0.03 | 89 | 1005.5 |
| 20260831093103 | 56 | 352 | 0.0 | 5.0 | 0.00 | 0.19 | 0.03 | 89 | 1005.6 |
| 20260831092544 | 56 | 0 | 1.0 | 5.0 | 0.00 | 0.19 | 0.03 | 88 | 1005.6 |
| 20260831092045 | 56 | 347 | 0.0 | 5.0 | 0.00 | 0.19 | 0.03 | 89 | 1005.5 |
| 20260831091557 | 56 | 81 | 1.0 | 5.0 | 0.00 | 0.19 | 0.03 | 89 | 1005.5 |
| 20260831091044 | 56 | 284 | 1.0 | 3.0 | 0.00 | 0.19 | 0.03 | 89 | 1005.5 |
| 20260831090547 | 56 | 250 | 0.0 | 3.0 | 0.00 | 0.19 | 0.03 | 89 | 1005.5 |
| 20260831090054 | 56 | 0 | 0.0 | 3.0 | 0.00 | 0.19 | 0.03 | 89 | 1005.5 |
| 20260831085545 | 56 | 343 | 0.0 | 3.0 | 0.00 | 0.19 | 0.03 | 90 | 1005.6 |
| 20260831085045 | 56 | 0 | 1.0 | 3.0 | 0.00 | 0.19 | 0.03 | 90 | 1005.5 |
| 20260831084604 | 56 | 223 | 0.0 | 3.0 | 0.00 | 0.19 | 0.03 | 90 | 1005.5 |
| 20260831084046 | 56 | 0 | 0.0 | 3.0 | 0.00 | 0.19 | 0.03 | 90 | 1005.4 |
| 20260831083544 | 56 | 345 | 0.0 | 3.0 | 0.00 | 0.19 | 0.03 | 90 | 1005.5 |
| 20260831083105 | 56 | 5 | 0.0 | 3.0 | 0.00 | 0.19 | 0.03 | 90 | 1005.4 |
| 20260831082544 | 56 | 351 | 0.0 | 4.0 | 0.00 | 0.19 | 0.03 | 90 | 1005.3 |
| 20260831082046 | 56 | 0 | 0.0 | 4.0 | 0.00 | 0.19 | 0.03 | 90 | 1005.3 |
| 20260831081632 | 56 | 0 | 0.0 | 4.0 | 0.00 | 0.19 | 0.03 | 90 | 1005.3 |
| 20260831081045 | 55 | 360 | 1.0 | 4.0 | 0.00 | 0.19 | 0.03 | 90 | 1005.3 |
| 20260831080544 | 55 | 0 | 0.0 | 4.0 | 0.00 | 0.19 | 0.03 | 90 | 1005.4 |
| 20260831075545 | 55 | 0 | 1.0 | 4.0 | 0.00 | 0.22 | 0.03 | 90 | 1005.3 |
| 20260831075044 | 55 | 317 | 0.0 | 3.0 | 0.00 | 0.22 | 0.03 | 90 | 1005.2 |
| 20260831074602 | 55 | 317 | 1.0 | 3.0 | 0.00 | 0.22 | 0.03 | 90 | 1005.3 |
| 20260831074044 | 55 | 316 | 0.0 | 4.0 | 0.00 | 0.22 | 0.03 | 90 | 1005.2 |
| 20260831073542 | 55 | 352 | 1.0 | 4.0 | 0.00 | 0.22 | 0.03 | 90 | 1005.2 |
| 20260831073156 | 55 | 344 | 0.0 | 3.0 | 0.00 | 0.21 | 0.03 | 91 | 1005.1 |
| 20260831072541 | 55 | 0 | 0.0 | 0.0 | 0.00 | 0.21 | 0.03 | 91 | 1005.2 |
| 20260831072047 | 55 | 0 | 0.0 | 0.0 | 0.00 | 0.21 | 0.03 | 90 | 1005.1 |
| 20260831071553 | 55 | 0 | 0.0 | 0.0 | 0.00 | 0.21 | 0.03 | 90 | 1005.2 |
| 20260831071041 | 55 | 0 | 0.0 | 1.0 | 0.00 | 0.21 | 0.03 | 90 | 1005.1 |
| 20260831070545 | 55 | 0 | 0.0 | 1.0 | 0.00 | 0.21 | 0.03 | 90 | 1005.1 |
| 20260831070107 | 55 | 0 | 0.0 | 2.0 | 0.00 | 0.21 | 0.03 | 90 | 1005.2 |
| 20260831065542 | 55 | 0 | 0.0 | 4.0 | 0.00 | 0.21 | 0.03 | 90 | 1005.1 |
| 20260831065041 | 55 | 352 | 0.0 | 4.0 | 0.00 | 0.21 | 0.03 | 90 | 1005.1 |
| 20260831064607 | 55 | 5 | 1.0 | 4.0 | 0.00 | 0.21 | 0.03 | 91 | 1005.1 |
| 20260831064047 | 55 | 0 | 0.0 | 4.0 | 0.00 | 0.21 | 0.03 | 91 | 1005.1 |
| 20260831063541 | 55 | 35 | 1.0 | 4.0 | 0.00 | 0.21 | 0.03 | 91 | 1005.0 |
| 20260831063056 | 55 | 0 | 0.0 | 4.0 | 0.00 | 0.21 | 0.03 | 91 | 1005.0 |
| 20260831062541 | 55 | 0 | 0.0 | 5.0 | 0.00 | 0.21 | 0.03 | 91 | 1005.0 |
| 20260831062042 | 54 | 236 | 0.0 | 5.0 | 0.00 | 0.21 | 0.03 | 91 | 1004.9 |
| 20260831061554 | 54 | 236 | 0.0 | 3.0 | 0.00 | 0.21 | 0.03 | 91 | 1004.9 |
| 20260831061041 | 54 | 0 | 0.0 | 2.0 | 0.00 | 0.21 | 0.03 | 91 | 1004.8 |
| 20260831060541 | 54 | 0 | 0.0 | 2.0 | 0.00 | 0.21 | 0.03 | 91 | 1004.8 |
| 20260831060115 | 54 | 0 | 0.0 | 2.0 | 0.00 | 0.21 | 0.03 | 91 | 1004.8 |
| 20260831055541 | 54 | 0 | 0.0 | 3.0 | 0.00 | 0.21 | 0.03 | 91 | 1004.8 |
| 20260831055042 | 54 | 236 | 1.0 | 4.0 | 0.00 | 0.21 | 0.03 | 91 | 1004.8 |
| 20260831054559 | 54 | 197 | 0.0 | 4.0 | 0.00 | 0.21 | 0.03 | 91 | 1004.9 |
| 20260831054042 | 54 | 254 | 1.0 | 4.0 | 0.00 | 0.21 | 0.03 | 91 | 1004.8 |
| 20260831053542 | 54 | 0 | 0.0 | 3.0 | 0.00 | 0.21 | 0.03 | 91 | 1004.7 |
| 20260831053104 | 54 | 173 | 1.0 | 3.0 | 0.00 | 0.21 | 0.03 | 91 | 1004.7 |
| 20260831052540 | 54 | 0 | 0.0 | 2.0 | 0.00 | 0.21 | 0.03 | 91 | 1004.7 |
| 20260831052043 | 54 | 0 | 0.0 | 6.0 | 0.00 | 0.21 | 0.03 | 91 | 1004.7 |
| 20260831051559 | 54 | 169 | 2.0 | 6.0 | 0.00 | 0.21 | 0.03 | 91 | 1004.7 |
| 20260831051042 | 54 | 227 | 2.0 | 5.0 | 0.00 | 0.21 | 0.03 | 91 | 1004.6 |
| 20260831050544 | 54 | 299 | 1.0 | 4.0 | 0.00 | 0.21 | 0.03 | 91 | 1004.5 |
| 20260831050141 | 54 | 315 | 1.0 | 6.0 | 0.00 | 0.21 | 0.03 | 91 | 1004.6 |
| 20260831045542 | 54 | 315 | 2.0 | 6.0 | 0.00 | 0.21 | 0.03 | 91 | 1004.5 |
| 20260831045042 | 54 | 221 | 0.0 | 5.0 | 0.00 | 0.21 | 0.03 | 91 | 1004.6 |
| 20260831044605 | 54 | 247 | 1.0 | 4.0 | 0.00 | 0.21 | 0.03 | 91 | 1004.6 |
| 20260831044045 | 54 | 224 | 2.0 | 5.0 | 0.00 | 0.21 | 0.03 | 91 | 1004.5 |
| 20260831043541 | 54 | 248 | 1.0 | 5.0 | 0.00 | 0.21 | 0.03 | 92 | 1004.6 |
| 20260831043101 | 54 | 0 | 0.0 | 5.0 | 0.00 | 0.21 | 0.03 | 92 | 1004.5 |
| 20260831042542 | 54 | 234 | 0.0 | 5.0 | 0.00 | 0.21 | 0.03 | 92 | 1004.5 |
| 20260831042042 | 54 | 297 | 2.0 | 5.0 | 0.00 | 0.21 | 0.03 | 92 | 1004.5 |
| 20260831041555 | 54 | 0 | 1.0 | 7.0 | 0.00 | 0.21 | 0.03 | 92 | 1004.5 |
| 20260831041044 | 54 | 329 | 0.0 | 7.0 | 0.00 | 0.21 | 0.03 | 92 | 1004.5 |
| 20260831040542 | 54 | 279 | 2.0 | 6.0 | 0.00 | 0.21 | 0.03 | 92 | 1004.5 |
| 20260831040055 | 54 | 229 | 2.0 | 6.0 | 0.00 | 0.21 | 0.03 | 92 | 1004.4 |
| 20260831035542 | 54 | 254 | 3.0 | 5.0 | 0.00 | 0.21 | 0.03 | 92 | 1004.4 |
| 20260831035042 | 54 | 243 | 2.0 | 5.0 | 0.00 | 0.21 | 0.03 | 92 | 1004.4 |
| 20260831034600 | 54 | 225 | 2.0 | 5.0 | 0.00 | 0.21 | 0.03 | 92 | 1004.4 |
| 20260831034042 | 54 | 248 | 2.0 | 5.0 | 0.00 | 0.21 | 0.03 | 92 | 1004.3 |
| 20260831033544 | 54 | 276 | 2.0 | 4.0 | 0.00 | 0.21 | 0.03 | 92 | 1004.4 |
| 20260831033052 | 54 | 232 | 1.0 | 4.0 | 0.00 | 0.21 | 0.03 | 92 | 1004.2 |
| 20260831032540 | 54 | 266 | 2.0 | 4.0 | 0.00 | 0.21 | 0.03 | 92 | 1004.3 |
| 20260831032040 | 54 | 221 | 1.0 | 4.0 | 0.00 | 0.21 | 0.03 | 92 | 1004.2 |
| 20260831031601 | 54 | 0 | 1.0 | 5.0 | 0.00 | 0.21 | 0.03 | 92 | 1004.2 |
| 20260831031041 | 54 | 0 | 1.0 | 5.0 | 0.00 | 0.21 | 0.03 | 92 | 1004.2 |
| 20260831030542 | 54 | 230 | 2.0 | 6.0 | 0.01 | 0.21 | 0.03 | 92 | 1004.2 |
| 20260831030059 | 54 | 276 | 2.0 | 7.0 | 0.01 | 0.21 | 0.03 | 92 | 1004.2 |
| 20260831025541 | 54 | 290 | 1.0 | 7.0 | 0.01 | 0.21 | 0.03 | 92 | 1004.2 |
| 20260831025041 | 54 | 246 | 2.0 | 6.0 | 0.01 | 0.21 | 0.03 | 92 | 1004.1 |
| 20260831024554 | 54 | 244 | 3.0 | 6.0 | 0.01 | 0.21 | 0.03 | 91 | 1004.2 |
| 20260831024041 | 54 | 234 | 2.0 | 6.0 | 0.01 | 0.21 | 0.03 | 91 | 1004.1 |
| 20260831023542 | 54 | 232 | 3.0 | 6.0 | 0.01 | 0.21 | 0.03 | 91 | 1004.0 |
| 20260831023100 | 54 | 229 | 3.0 | 5.0 | 0.01 | 0.21 | 0.03 | 91 | 1004.0 |
| 20260831022547 | 54 | 225 | 2.0 | 7.0 | 0.01 | 0.21 | 0.03 | 91 | 1004.0 |
| 20260831022042 | 54 | 264 | 2.0 | 9.0 | 0.01 | 0.21 | 0.03 | 91 | 1004.0 |
| 20260831021558 | 54 | 243 | 3.0 | 9.0 | 0.01 | 0.21 | 0.03 | 91 | 1003.9 |
| 20260831021042 | 54 | 233 | 3.0 | 7.0 | 0.00 | 0.20 | 0.02 | 91 | 1003.9 |
| 20260831020544 | 54 | 283 | 2.0 | 7.0 | 0.00 | 0.19 | 0.01 | 91 | 1004.0 |
| 20260831020055 | 54 | 272 | 2.0 | 8.0 | 0.00 | 0.19 | 0.01 | 91 | 1004.0 |
| 20260831015542 | 54 | 249 | 2.0 | 8.0 | 0.00 | 0.20 | 0.01 | 91 | 1003.9 |
| 20260831015041 | 54 | 294 | 1.0 | 5.0 | 0.00 | 0.20 | 0.01 | 91 | 1003.9 |
| 20260831014553 | 54 | 275 | 3.0 | 5.0 | 0.00 | 0.20 | 0.01 | 91 | 1003.8 |
| 20260831014041 | 54 | 260 | 1.0 | 4.0 | 0.00 | 0.20 | 0.01 | 91 | 1003.8 |
| 20260831013541 | 54 | 0 | 2.0 | 7.0 | 0.00 | 0.20 | 0.01 | 91 | 1003.8 |
| 20260831013100 | 54 | 14 | 2.0 | 7.0 | 0.00 | 0.20 | 0.01 | 91 | 1003.7 |
| 20260831012542 | 54 | 298 | 2.0 | 8.0 | 0.00 | 0.20 | 0.01 | 91 | 1003.7 |
| 20260831012041 | 54 | 257 | 1.0 | 8.0 | 0.00 | 0.20 | 0.01 | 91 | 1003.7 |
| 20260831011552 | 54 | 232 | 1.0 | 5.0 | 0.00 | 0.20 | 0.01 | 91 | 1003.6 |
| 20260831011043 | 54 | 246 | 2.0 | 6.0 | 0.00 | 0.20 | 0.01 | 91 | 1003.6 |
| 20260831010543 | 54 | 252 | 3.0 | 7.0 | 0.00 | 0.20 | 0.01 | 91 | 1003.6 |
| 20260831010104 | 54 | 264 | 3.0 | 7.0 | 0.00 | 0.20 | 0.01 | 91 | 1003.6 |
| 20260831005543 | 54 | 225 | 3.0 | 7.0 | 0.00 | 0.21 | 0.01 | 91 | 1003.6 |
| 20260831005043 | 54 | 242 | 3.0 | 8.0 | 0.00 | 0.21 | 0.01 | 91 | 1003.6 |
| 20260831004558 | 55 | 280 | 2.0 | 8.0 | 0.00 | 0.20 | 0.00 | 91 | 1003.6 |
| 20260831004044 | 55 | 235 | 3.0 | 7.0 | 0.00 | 0.20 | 0.00 | 91 | 1003.5 |
| 20260831003545 | 55 | 234 | 2.0 | 8.0 | 0.00 | 0.20 | 0.00 | 91 | 1003.5 |
| 20260831003055 | 55 | 245 | 3.0 | 8.0 | 0.00 | 0.20 | 0.00 | 91 | 1003.5 |